Location: Trenton
(45.6167°N, 62.6167°W)
Time: 03:37:10
(UTC+00:00)

X-37B - Visible Passes

Search period start: 18 September 2021 00:00
Search period end: 28 September 2021 00:00
Orbit: 381 x 393 km, 45.0° (Epoch: 29 August)

Date Brightness Start Highest point End Pass type
(mag) Time Alt. Az. Time Alt. Az. Time Alt. Az.
19 Sep 3.4 09:16:57 10° S 09:18:25 13° SE 09:19:53 10° ESE visible
21 Sep 2.7 08:55:36 10° SSW 08:58:02 20° SSE 09:00:29 10° E visible
22 Sep 3.2 07:59:40 13° SSE 07:59:53 13° SE 08:01:21 10° ESE visible
23 Sep 1.9 08:36:23 22° SSW 08:37:43 31° SSE 08:40:35 10° E visible
24 Sep 3.2 07:40:44 16° ESE 07:40:44 16° ESE 07:41:56 10° E visible
24 Sep 0.8 09:13:02 13° WSW 09:15:47 64° SSE 09:18:56 10° E visible
25 Sep 1.1 08:17:21 46° S 08:17:28 46° SSE 08:20:32 10° E visible
26 Sep 3.8 07:21:38 13° E 07:21:38 13° E 07:22:03 10° E visible
26 Sep 0.5 08:53:55 25° WSW 08:55:37 78° S 08:58:48 10° E visible
27 Sep 1.8 07:58:12 39° ESE 07:58:12 39° ESE 08:00:24 10° E visible
27 Sep 0.6 09:30:41 10° W 09:33:51 78° S 09:37:01 10° E visible
